Vernon, TX

2:24 AM CDT on October 01, 2016 (GMT -0500)
Vernon

Weather History for KF05 - January, 2013

Change the Weather History Date:

Tuesday, January 29, 2013

  Actual Average (KLTS) Record (KLTS)
Temperature  
Mean Temperature 56 °F -  
Max Temperature 69 °F 50 °F 79 °F (2016)
Min Temperature 41 °F 27 °F 8 °F (2014)
Degree Days  
Heating Degree Days 10    
Growing Degree Days 6 (Base 50)    
Moisture  
Dew Point 41 °F    
Average Humidity 54    
Maximum Humidity 86    
Minimum Humidity 26    
Precipitation  
Precipitation 0.02 in - - ()
Sea Level Pressure  
Sea Level Pressure 29.63 in    
Wind  
Wind Speed 13 mph (WSW)    
Max Wind Speed 37 mph    
Max Gust Speed 44 mph    
Visibility 10 miles    
Events Thunderstorm    
Averages and records for this station are not official NWS values.
T = Trace of Precipitation, MM = Missing Value Source: NWS Daily Summary

Daily Weather History Graph

Daily Weather History Graph

Search for Another Location

Airport or City:

Trip Planner

Search our weather history database for the weather conditions in past years. The results will help you decide how hot, cold, wet, or windy it might be!

Date:

Astronomy

Jan. 29, 2013 Rise Set
Actual Time 7:36 AM CST 6:04 PM CST
Civil Twilight 7:09 AM CST 6:31 PM CST
Nautical Twilight 6:39 AM CST 7:01 PM CST
Astronomical Twilight 6:10 AM CST 7:30 PM CST
Moon 8:51 PM CST (1/29) 8:43 AM CST (1/29)
Length of Visible Light 11h 21m
Length of Day
10h 28m
Waning Gibbous, 93% of the Moon is Illuminated
Jan 29
Waning Gibbous
Feb 3
Last Quarter
Feb 10
New
Feb 17
First Quarter
Feb 25
Full

Hourly Weather History & Observations

Time (CST) Temp. Windchill Dew Point Humidity Pressure Visibility Wind Dir Wind Speed Gust Speed Precip Events Conditions
12:15 AM 68.5 °F - 57.6 °F 68% 29.74 in 10.0 mi South 11.5 mph - N/A   Clear
12:35 AM 68.0 °F - 57.7 °F 70% 29.73 in 10.0 mi South 12.7 mph - N/A   Clear
12:55 AM 68.0 °F - 58.1 °F 71% 29.73 in 10.0 mi South 11.5 mph - N/A   Clear
1:15 AM 67.5 °F - 58.3 °F 72% 29.72 in 10.0 mi South 9.2 mph - N/A   Clear
1:35 AM 66.9 °F - 58.5 °F 74% 29.72 in 10.0 mi SSW 6.9 mph - N/A   Clear
1:55 AM 66.4 °F - 58.5 °F 76% 29.72 in 10.0 mi SSW 9.2 mph - N/A   Clear
2:15 AM 66.6 °F - 59.0 °F 77% 29.71 in 10.0 mi SSW 10.4 mph - N/A   Mostly Cloudy
2:35 AM 67.1 °F - 59.2 °F 76% 29.71 in 10.0 mi South 11.5 mph - N/A   Mostly Cloudy
2:55 AM 67.1 °F - 59.4 °F 76% 29.70 in 10.0 mi South 10.4 mph - N/A   Overcast
3:15 AM 67.1 °F - 59.5 °F 77% 29.70 in 10.0 mi South 9.2 mph - N/A   Overcast
3:35 AM 66.9 °F - 59.7 °F 78% 29.69 in 10.0 mi South 9.2 mph - N/A   Overcast
3:55 AM 66.7 °F - 59.9 °F 79% 29.67 in 10.0 mi SSE 6.9 mph - N/A   Overcast
4:15 AM 66.0 °F - 59.9 °F 81% 29.66 in 10.0 mi SSE 9.2 mph - N/A   Overcast
4:35 AM 66.0 °F - 60.1 °F 81% 29.66 in 10.0 mi SSE 8.1 mph - N/A   Overcast
4:55 AM 65.8 °F - 60.1 °F 82% 29.65 in 10.0 mi SSE 8.1 mph - N/A   Overcast
5:15 AM 65.7 °F - 60.1 °F 82% 29.65 in 10.0 mi SSW 4.6 mph - N/A   Overcast
5:35 AM 65.7 °F - 60.1 °F 82% 29.66 in 10.0 mi SSW 3.5 mph - N/A   Overcast
5:55 AM 65.5 °F - 60.1 °F 83% 29.64 in 10.0 mi South 3.5 mph - N/A   Overcast
6:15 AM 65.1 °F - 60.8 °F 86% 29.64 in 7.0 mi SSE 9.2 mph - 0.01 in Thunderstorm Overcast
6:55 AM 63.3 °F - 58.1 °F 83% 29.63 in 10.0 mi SSW 6.9 mph - 0.01 in   Scattered Clouds
7:15 AM 61.9 °F - 53.2 °F 73% 29.64 in 7.0 mi NNW 6.9 mph - 0.01 in Thunderstorm Overcast
7:35 AM 59.4 °F - 49.5 °F 70% 29.64 in 10.0 mi North 3.5 mph - 0.01 in Thunderstorm Thunderstorm
7:55 AM 58.1 °F - 49.1 °F 72% 29.63 in 10.0 mi NNW 6.9 mph - 0.01 in   Mostly Cloudy
8:15 AM 57.7 °F - 49.1 °F 73% 29.63 in 10.0 mi NW 4.6 mph - N/A   Mostly Cloudy
8:35 AM 57.4 °F - 50.0 °F 76% 29.64 in 10.0 mi West 4.6 mph - N/A Thunderstorm Mostly Cloudy
8:55 AM 57.4 °F - 48.9 °F 73% 29.64 in 10.0 mi West 6.9 mph - N/A Thunderstorm Scattered Clouds
9:15 AM 57.2 °F - 47.8 °F 71% 29.62 in 10.0 mi WNW 8.1 mph - N/A   Clear
9:35 AM 57.2 °F - 47.7 °F 70% 29.62 in 10.0 mi WNW 11.5 mph - N/A   Clear
9:55 AM 58.1 °F - 45.9 °F 64% 29.62 in 10.0 mi WNW 12.7 mph - N/A   Clear
10:15 AM 59.0 °F - 44.8 °F 59% 29.61 in 10.0 mi West 10.4 mph - N/A   Clear
10:35 AM 59.5 °F - 45.7 °F 60% 29.61 in 10.0 mi West 10.4 mph - N/A   Clear
10:55 AM 62.4 °F - 44.2 °F 51% 29.61 in 10.0 mi West 8.1 mph - N/A   Clear
11:15 AM 65.8 °F - 39.9 °F 39% 29.60 in 10.0 mi West 16.1 mph - N/A   Clear
11:35 AM 67.8 °F - 36.7 °F 32% 29.58 in 10.0 mi WNW 19.6 mph 25.3 mph N/A   Clear
11:55 AM 68.2 °F - 35.6 °F 30% 29.56 in 10.0 mi WNW 20.7 mph - N/A   Clear
12:15 PM 69.3 °F - 33.8 °F 27% 29.56 in 10.0 mi WNW 19.6 mph 28.8 mph N/A   Clear
12:35 PM 69.6 °F - 33.3 °F 26% 29.58 in 10.0 mi WNW 27.6 mph 34.5 mph N/A   Clear
12:55 PM 67.8 °F - 31.5 °F 26% 29.59 in 10.0 mi WNW 24.2 mph 29.9 mph N/A   Clear
1:15 PM 66.9 °F - 30.9 °F 26% 29.59 in 10.0 mi West 25.3 mph 34.5 mph N/A   Clear
1:35 PM 66.6 °F - 31.3 °F 27% 29.61 in 10.0 mi West 26.5 mph 39.1 mph N/A   Scattered Clouds
1:55 PM 65.7 °F - 31.1 °F 27% 29.57 in 7.0 mi West 34.5 mph 43.7 mph N/A   Scattered Clouds
2:15 PM 64.9 °F - 30.7 °F 28% 29.58 in 10.0 mi West 36.8 mph 42.6 mph N/A   Scattered Clouds
2:35 PM 63.1 °F - 30.9 °F 30% 29.59 in 10.0 mi West 32.2 mph 38.0 mph N/A   Scattered Clouds
2:55 PM 61.0 °F - 30.9 °F 32% 29.59 in 10.0 mi West 34.5 mph 39.1 mph N/A   Mostly Cloudy
3:15 PM 61.5 °F - 30.7 °F 31% 29.58 in 10.0 mi West 34.5 mph 41.4 mph N/A   Overcast
3:35 PM 61.2 °F - 30.2 °F 31% 29.58 in 10.0 mi WSW 28.8 mph 35.7 mph N/A   Mostly Cloudy
3:55 PM 60.3 °F - 28.6 °F 30% 29.57 in 10.0 mi WSW 32.2 mph 39.1 mph N/A   Mostly Cloudy
4:15 PM 60.6 °F - 27.3 °F 28% 29.56 in 10.0 mi WSW 31.1 mph 41.4 mph N/A   Scattered Clouds
4:35 PM 60.4 °F - 27.0 °F 28% 29.54 in 10.0 mi WSW 23.0 mph 31.1 mph N/A   Clear
4:55 PM 59.7 °F - 27.0 °F 29% 29.54 in 10.0 mi WSW 16.1 mph - N/A   Clear
5:15 PM 59.7 °F - 26.1 °F 28% 29.55 in 10.0 mi SW 17.3 mph 26.5 mph N/A   Clear
5:35 PM 59.9 °F - 25.2 °F 26% 29.54 in 10.0 mi WSW 16.1 mph 25.3 mph N/A   Clear
5:55 PM 59.4 °F - 23.9 °F 26% 29.55 in 10.0 mi SW 11.5 mph - N/A   Clear
6:15 PM - - - N/A% 29.55 in 10.0 mi WSW 20.7 mph 25.3 mph N/A   Unknown
6:35 PM 58.3 °F - 24.4 °F 27% 29.57 in 10.0 mi West 18.4 mph 27.6 mph N/A   Clear
6:55 PM 57.6 °F - 23.5 °F 27% 29.58 in 10.0 mi West 25.3 mph 29.9 mph N/A   Clear
7:15 PM 55.9 °F - 22.6 °F 28% 29.58 in 10.0 mi West 18.4 mph - N/A   Clear
7:35 PM 54.3 °F - 22.1 °F 29% 29.59 in 10.0 mi WSW 13.8 mph - N/A   Clear
7:55 PM 52.9 °F - 21.9 °F 30% 29.61 in 10.0 mi WSW 13.8 mph - N/A   Clear
8:15 PM 52.7 °F - 21.2 °F 29% 29.62 in 10.0 mi WSW 15.0 mph - N/A   Clear
8:35 PM 52.5 °F - 20.8 °F 29% 29.63 in 10.0 mi WSW 15.0 mph - N/A   Clear
8:55 PM 51.3 °F - 25.9 °F 37% 29.66 in 10.0 mi NNW 16.1 mph 26.5 mph N/A   Clear
9:15 PM 47.7 °F - 33.8 °F 59% 29.67 in 10.0 mi NNW 18.4 mph - N/A   Mostly Cloudy
9:35 PM 47.1 °F - 33.6 °F 59% 29.68 in 10.0 mi NNW 16.1 mph - N/A   Overcast
9:55 PM 46.6 °F - 33.3 °F 60% 29.69 in 10.0 mi NNW 17.3 mph 21.9 mph N/A   Overcast
10:15 PM 45.9 °F 39.7 °F 32.5 °F 60% 29.69 in 10.0 mi NNW 13.8 mph 25.3 mph N/A   Mostly Cloudy
10:35 PM 44.6 °F 37.4 °F 32.0 °F 61% 29.70 in 10.0 mi NNW 16.1 mph - N/A   Scattered Clouds
10:55 PM 43.5 °F 36.7 °F 31.8 °F 63% 29.72 in 10.0 mi NW 13.8 mph - N/A   Clear
11:15 PM 42.6 °F 35.6 °F 31.6 °F 65% 29.73 in 10.0 mi NW 13.8 mph - N/A   Clear
11:35 PM 42.1 °F 35.7 °F 31.3 °F 66% 29.74 in 10.0 mi NW 11.5 mph - N/A   Clear
11:55 PM 41.7 °F 35.2 °F 31.1 °F 66% 29.76 in 10.0 mi NW 11.5 mph - N/A   Scattered Clouds